Flag for Uzbekistan Weather past 2 weeks in Tashkent, Uzbekistan

Now
82 °F

Clear.


Feels Like: 81 °F
Forecast: 71 / 104 °F
Wind: 3 mph from West

Location: Tashkent

Current Time: Aug 20, 2014 at 9:39:05 PM

Latest Report: Aug 20, 2014 at 9:00 PM


Visibility: 10 mi

Pressure: 29.80 "Hg

Humidity: 28%

Dew point: 46 °F

Location of TashkentLocation

Historic Weather in Tashkent — Graph

°F

Tashkent temperature yesterday

Maximum temperature yesterday: 97 °F (at 3:30 PM)
Minimum temperature yesterday: 64 °F (at 6:00 AM)
Average temperature yesterday: 82 °F

Past Weeks' High & Low Weather Summary

 TemperatureHumidityPressure
High100 °F (Aug 12, 3:30 PM)64% (Aug 16, 6:00 AM)29.98 "Hg (Aug 16, 6:00 AM)
Low63 °F (Aug 16, 6:00 AM)6% (Aug 19, 3:30 PM)29.62 "Hg (Aug 7, 12:30 AM)
Average82 °F28%29.77 "Hg
* Reported Aug 5 8:00 PM — Aug 20 8:00 PM, Tashkent, Weather by CustomWeather, © 2014

Note: Actual official high and low records may vary slightly from our data, if they occured in-between our weather recording intervals... More about our weather records

Advertising

Tashkent weather history for previous 24 hours

 ConditionsComfort  
Time TempWeatherWind HumidityBarometerVisibility
8:00 PM
Aug 20
88 °FClear.3 mph21%29.80 "Hg10 mi
7:30 PM93 °FClear.1 mph16%29.80 "Hg10 mi
7:00 PM93 °FSunny.3 mph16%29.80 "Hg10 mi
6:30 PM97 °FSunny.3 mph12%29.80 "Hg10 mi
6:00 PM99 °FSunny.6 mph10%29.80 "Hg10 mi
5:30 PM100 °FPassing clouds.8 mph9%29.80 "HgN/A
5:00 PM100 °FPassing clouds.8 mph9%29.80 "HgN/A
4:30 PM100 °FPassing clouds.8 mph9%29.80 "HgN/A
4:00 PM100 °FPassing clouds.8 mph10%29.80 "HgN/A
3:30 PM100 °FPassing clouds.10 mph10%29.83 "HgN/A
3:00 PM100 °FPassing clouds.10 mph10%29.83 "HgN/A
2:30 PM99 °FPassing clouds.8 mph12%29.83 "HgN/A
2:00 PM97 °FPassing clouds.8 mph13%29.86 "HgN/A
1:30 PM97 °FPassing clouds.8 mph13%29.86 "HgN/A
1:00 PM97 °FClear.8 mph13%29.86 "Hg4 mi
12:30 PM95 °FClear.8 mph12%29.86 "Hg4 mi
12:00 PM93 °FClear.8 mph17%29.86 "Hg4 mi
11:30 AM91 °FClear.6 mph20%29.89 "Hg4 mi
11:00 AM90 °FClear.3 mph22%29.89 "Hg4 mi
10:30 AM90 °FClear.3 mph22%29.89 "Hg4 mi
10:00 AM86 °FClear.3 mph27%29.89 "Hg4 mi
9:30 AM84 °FClear.1 mph27%29.89 "Hg4 mi
9:00 AM81 °FClear.3 mph30%29.89 "Hg4 mi
8:30 AM81 °FClear.3 mph28%29.89 "Hg4 mi
8:00 AM79 °FSunny.1 mph28%29.89 "Hg10 mi
7:30 AM77 °FSunny.3 mph30%29.89 "Hg10 mi
7:00 AM73 °FSunny.6 mph33%29.89 "Hg10 mi
6:30 AM72 °FSunny.3 mph36%29.89 "Hg10 mi
6:00 AM68 °FSunny.6 mph40%29.89 "Hg10 mi
5:30 AM70 °FPassing clouds.3 mph38%29.86 "HgN/A
5:00 AM68 °FClear.3 mph40%29.86 "Hg10 mi
4:30 AM68 °FClear.6 mph40%29.86 "Hg10 mi
4:00 AM68 °FClear.8 mph40%29.86 "Hg10 mi
3:30 AM68 °FClear.8 mph40%29.86 "Hg10 mi
3:00 AM72 °FClear.8 mph33%29.86 "Hg10 mi
2:30 AM73 °FClear.8 mph31%29.86 "Hg10 mi
1:30 AM72 °FClear.6 mph36%29.86 "Hg10 mi
1:00 AM70 °FClear.6 mph40%29.89 "Hg10 mi
12:30 AM72 °FClear.8 mph38%29.89 "Hg10 mi
12:00 AM72 °FClear.8 mph38%29.89 "Hg10 mi
11:30 PM
Aug 19
75 °FClear.6 mph34%29.89 "Hg10 mi
11:00 PM75 °FPassing clouds.3 mph34%29.89 "HgN/A
10:30 PM77 °FClear.3 mph34%29.89 "Hg10 mi
10:00 PM79 °FClear.3 mph30%29.89 "Hg10 mi
9:30 PM81 °FClear.1 mph28%29.89 "Hg10 mi
9:00 PM84 °FClear.1 mph23%29.89 "Hg10 mi
Weather by CustomWeather, © 2014

See weather overviewHow to use our weather pages